www.pogodaiklimat.ru

Погода и климат >> Архив погоды >> Россия >> Чечня >> Шатой


ПОГОДА в Шатое

  • Прогноз погоды в Шатое
  • Монитор погоды в Шатое

АРХИВ ПОГОДЫ в Шатое

Время (UTC), дата Ветер
(напр.,м/с)
 
Видим.   Явления Облачность Т
(С)
Тd
(С)
f
(%)
Тe
(С)
Тes
(С)
Комфортность P
(гПа)
Po
(гПа)
Тmin
(С)
Tmax
(С)
R
(мм)
R24
(мм)
S
(см)
12 9.07 СВ 1 4000 м слаб. ливневой дождь 10/10 600 м
[Cb cap]
+21.3 +18.8 86 +26 +26 душно 1008.7 944.3
15 9.07 С 1 10 км 10/10 600 м
[Cu med, cong]
+21.4 +18.9 86 +26 +26 душно 1009.7 945.3 +26.6 0.7
03 10.07 С 1 20 км 10/10 600 м
[Sc]
+13.9 +13.0 94 +14 +14 1013.1 946.9 +13.9
06 10.07 ЮЗ 2 20 км 9/9 600 м
[Cu med, cong]
+19.1 +16.8 87 +21 +22 комфорт 1010.1 945.2
09 10.07 С 2 20 км 9/9 600 м
[Cu med, cong]
+22.9 +18.8 78 +29 +31 очень
душно
1007.3 943.4
12 10.07 СЗ 2 20 км 10/10 600 м
[Cu med, cong]
+23.4 +18.7 75 +30 +30 очень
душно
1006.6 942.8
15 10.07 Ю 1 20 км 8/8 600 м
[Cu med, cong Ci ing]
+24.8 +19.2 71 +30 +30 душно 1005.8 942.4 +24.7
03 11.07 штиль 0 20 км ясно +13.7 +11.1 84 +13 +15 1007.2 941.3 +13.9
06 11.07 С 3 20 км 1/1 600 м
[Cu med, cong]
+23.5 +18.4 73 +28 +37 душно 1003.4 939.8
09 11.07 С 5 20 км 4/4 600 м
[Cu med, cong]
+28.4 +20.6 63 +35 +41 очень
душно
999.0 936.7
12 11.07 С 2 20 км 6/6 600 м
[Cu med, cong]
+32.3 +22.2 55 +41 +46 опасность
перегрева
997.4 936.0
15 11.07 С 2 20 км 9/9 600 м
[Cu med, cong]
+27.6 +17.9 56 +32 +32 очень
душно
999.4 936.9 +32.3
03 12.07 штиль 0 20 км 6/6 600 м
[Sc]
+18.1 +12.2 68 +18 +19 1000.9 936.4 +18.1
06 12.07 С 5 20 км 10/10 600 м
[Cu med, cong]
+18.9 +14.2 74 +20 +20 1002.0 937.6
09 12.07 С 8
{12}
20 км 10/10 600 м
[Cu med, cong]
+19.8 +15.4 76 +21 +21 комфорт 1004.4 940.0
12 12.07 С 2 10 км гроза, ливневой дождь 10/10 600 м
[Sc]
+17.1 +13.6 80 +17 +17 1007.2 942.0
15 12.07 З 2 10 км гроза, ливневой дождь 10/10 600 м
[Cb cap]
+17.7 +13.6 77 +18 +18 1007.2 942.2 +22.7 3
03 13.07 10 км в посл. час ливневой дождь н/о +15.4 +14.7 96 +14 +14 1009.9 944.2 +15.1 5
06 13.07 С 3 20 км 10/10 600 м
[Cu med, cong]
+17.4 +15.0 86 +17 +17 1009.1 943.9
09 13.07 С 4 20 км 10/10 600 м
[Cu med, cong]
+16.2 +14.1 87 +15 +15 1009.8 944.3
12 13.07 С 4 20 км 10/10 600 м
[Cu med, cong]
+18.3 +15.4 83 +19 +19 1009.4 944.4
15 13.07 С 3 20 км 10/10 600 м
[Cu med, cong]
+18.2 +15.3 83 +19 +19 1009.9 944.8 +18.3
03 14.07 штиль 0 4000 м слаб. ливневой дождь 10/10 600 м
[Cb cap]
+14.9 +14.6 98 +15 +15 1010.6 944.7 +14.5 7
06 14.07 С 3 4000 м слаб. ливневой дождь 10/10 600 м
[Cb cap]
+16.2 +14.8 91 +16 +16 1011.0 945.4
09 14.07 СЗ 4 20 км 9/9 600 м
[Cu med, cong]
+18.9 +16.4 85 +20 +21 1010.9 945.9
12 14.07 С 4 20 км 8/8 600 м
[Cu med, cong]
+22.3 +17.4 74 +27 +29 душно 1008.8 944.7
15 14.07 СЗ 2 20 км 10/10 600 м
[Cu med, cong]
+19.7 +15.5 77 +22 +22 комфорт 1010.0 945.2 +22.9 2
03 15.07 штиль 0 20 км 4/4 600 м
[Sc]
+12.1 +11.5 96 +11 +13 1007.1 940.8 +12.1
06 15.07 С 5 20 км 3/3 600 м
[Cu med, cong]
+20.3 +17.9 86 +24 +28 комфорт 1003.7 939.5
09 15.07 С 4 20 км 3/3 600 м
[Cu med, cong]
+23.5 +19.0 76 +28 +37 душно 1002.7 939.2
12 15.07 СВ 7 20 км 4/4 600 м
[Cu med, cong]
+26.1 +19.4 67 +32 +33 очень
душно
1000.4 937.6
15 15.07 С 2 20 км 3/3 600 м
[Cu med, cong]
+26.2 +17.3 58 +30 +31 душно 1000.2 937.4 +27.2
03 16.07 20 км н/о +17.7 +13.1 74 +18 +19 1004.4 939.6 +17.7
06 16.07 С 4 20 км 8/8 600 м
[Cu med, cong]
+22.3 +16.6 70 +27 +28 душно 1004.3 940.4
09 16.07 С 3 20 км 6/6 600 м
[Cu med, cong]
+25.7 +18.7 65 +31 +37 очень
душно
1005.0 941.8

 

Местоположение метеостанции Шатой (Чечня, Россия): широта 42.88 долгота 45.68 высота над уровнем моря 568 м.

В архиве по умолчанию представлена погода в Шатое за последнюю неделю. Архивные данные за месяц целиком и за предыдущие месяцы, начиная с января 2011 года, Вы можете получить, выбрав интересующий диапазон дат из раскрывающегося списка и нажав кнопку "Ввод!".


*Определитесь, кто Вы:
робот инопланетянин человек

Внимание! Время в таблицах - всемирное. Для получения местного времени необходимо прибавить поправку, которая равна 3 ч.

Смотрите также архив погоды в соседних городах и на ближайших метеорологических станциях:

Погода в Грозном (Чечня, Россия) (41 км)
Погода в Гудермесе (Чечня, Россия) (63 км)
Погода в Сулаке (высокогорная) (Дагестан, Россия) (73 км)
Погода в Назрани (Ингушетия, Россия) (74 км)
Погода в Владикавказе (Северная Осетия, Россия) (83 км)
Погода в Хасавюрте (Дагестан, Россия) (84 км)
Погода в Хунзахе (Дагестан, Россия) (90 км)
Погода в Наурской (Чечня, Россия) (90 км)
Погода в Шелковской (Чечня, Россия) (91 км)
Погода в Пасанаури (Грузия) (100 км)

Пояснения к столбцам:

Ветер - указаны скорость ветра в м/с - средняя за 10 мин, порывы в срок и между сроками (в фигурных скобках) и направление, откуда дует ветер: С - северный, СВ - северо-восточный, В - восточный, ЮВ - юго-восточный, Ю - южный, ЮЗ - юго-западный, З - западный, СЗ - северо-западный.
Видимость - горизонтальная дальность видимости в метрах или километрах. При видимости от 1 до 10 км при отсутствии осадков обычно наблюдается дымка, при ухудшении видимости до 1 км и менее - туман. В сухую погоду видимость может ухудшаться дымом, пылью или мглою.
Явления - указаны атмосферные явления, наблюдавшиеся в срок или в последний час перед сроком; фигурными скобками обозначены явления, наблюдавшиеся между сроками (за 1-3 часа до срока); квадратными скобками обозначены град или гололедные отложения с указанием их диаметра в мм.
Облачность - указаны через наклонную черту общая и нижняя облачность в баллах и высота нижней границы облаков в метрах; квадратными скобками обозначены формы облаков: Ci - перистые, Cs - перисто-слоистые, Cc - перисто-кучевые, Ac - высококучевые, As - высокослоистые, Sc - слоисто-кучевые, Ns - слоисто-дождевые, Cu - кучевые, Cb - кучево-дождевые. Подробнее классификацию облаков см. в Атласе облаков (PDF).
T - Температура воздуха - температура, измеренная на высоте 2 м над землей.
Td - Температура точки росы - температура, при понижении до которой содержащийся в воздухе водяной пар достигнет насыщения.
f - Относительная влажность воздуха - влажноcть воздуха, измеренная на высоте 2 м над землей.
Te - Эффективная температура - температура, которую ощущает одетый по сезону человек в тени. Характеристика душности погоды. При расчете учитывается влияние влажности воздуха и скорости ветра на теплоощущения человека.
Tes - Эффективная температура на солнце - температура, которую ощущает человек, с поправкой на солнечный нагрев. Характеристика знойности погоды. Зависит от высоты солнца над горизонтом, облачности и скорости ветра. Ночью, в пасмурную погоду, а также при ветре 12 м/с и более поправка равна нулю.
P - Атмосферное давление - приведенное к уровню моря атмосферное давление.
Po - Атмосферное давление - измеренное на уровне метеостанции атмосферное давление.
Tmin - Минимальная температура - минимум температуры воздуха на высоте 2 м над землей.
Tmax - Максимальная температура - максимум температуры воздуха на высоте 2 м над землей.
R - Количество осадков - Количество выпавших осадков за период времени, мм. При наведении курсора мыши на число - период времени, за который выпало указанное количество осадков.
R24 - Количество осадков - Количество выпавших осадков за 24 часа, мм.
S - Снежный покров - Высота снежного покрова, см. При наведении курсора мыши на число - состояние снежного покрова и степень покрытия местности в баллах.